Simultaneous Nadir Overpasses (SNOs) Predictions

Prediction of SNOs near US between AQUA and NPP Satellite Orbit:

Table of predicted SNOs near US for the next 10.0 days since TLE Epoch: 11/1/2019
Index Date (AQUA) Time (AQUA) AQUA Lat,Lon Date (NPP) Time (NPP) NPP Lat,Lon Distance(km) Time Diff (sec)
1 11/03/2019 19:06:14 49.99, -92.56 11/03/2019 19:01:24 49.64, -94.40 138.18 290
2 11/03/2019 20:45:07 49.99,-117.28 11/03/2019 20:42:52 49.53,-119.73 183.48 135
3 11/06/2019 08:34:55 20.03,-101.89 11/06/2019 08:26:35 18.48,-102.45 181.44 500
4 11/06/2019 10:11:43 27.56,-124.79 11/06/2019 10:05:28 27.68,-125.51 71.75 375
5 11/09/2019 07:18:35 49.90, -76.00 11/09/2019 07:20:21 50.31, -78.24 166.36 106
6 11/09/2019 08:57:28 49.90,-100.72 11/09/2019 09:01:48 50.48,-103.54 210.84 260
7 11/11/2019 18:16:43 49.98, -80.18 11/11/2019 18:10:36 49.68, -81.74 116.67 367




NCC Satellite Simultaneous Nadir Overpasses (SNOs) Prediction Service
